Aeroporto :
LOGIN :

Iscrizione | Disclaimer

   EN    FR    IT 

 










Sommario :    VFR   VFR Marginale   IFR   IFR Intensivo   IFR Molto Intensivo
Visibilità : 
Base nubi : 
>= 8 km
>= 3000ft
5 / 8 km
1000 / 3000 ft
1500m / 5 km
500 / 1000 ft
800 / 1500m
200 / 500 ft
< 800m
< 200 ft
Simboli :   Temporali  Nebbia  Neve Forte  Precipitazioni Forti  Vento > 20 kt
SIGMETs :   Varie  Temporali  Ghiacco  Turbolenza  Onda orograficha  Ceneri Vulcaniche







- Altitudine del aeroporto : 39 ft
- Codice IATA : ANR


EBAW - Anvers / Antwerpen Deurne

ULTIMO METAR :
  • 150350Z AUTO 13004KT 9999 // OVC035/// M00/M03 Q1025

METARs OBSOLETI :
  • 150320Z AUTO 14004KT 9999 // OVC037/// 00/M04 Q1025
  • 150250Z AUTO 13005KT 9999 // OVC035/// 00/M03 Q1025
  • 150220Z AUTO 11004KT 9999 // OVC036/// 00/M03 Q1025
  • 150150Z AUTO 12004KT 100V170 9999 // OVC037/// 00/M03 Q1025
  • 150120Z AUTO 12004KT 9999 // OVC037/// 00/M03 Q1025

TAF TAF EBAW
Valido dal 15 a 03 ore il 15 a 12 ore UTC


150200Z 1503/1512 13004KT 8000 BKN035
PROB30
TEMPO 1503/1506 4500 BR
Nessun NOTAM noto per questo aeroporto.



MetMap, La meteo Aeronautica in un colpo d'occhio ! - Copyright ORBIFLY Dicembre 2007 - Disclaimer

ORBIFLY MET'MAP TEAM :

Programmazione e sviluppo : Alexandra Zaïnal
Concezione e sviluppo : Baudouin d'Aumeries
Co-Programmazione e sviluppo : Marc-Olivier Méhu
Supporto tecnico e logistico : Manuel Goepfert
Aiuto per la traduzione : Arnaldo La Scala

Contatto : metmap@orbifly.com




FONTI E CREDITI :

   NOAA